Погода в Тельце

Россия / Брянская область     52°34′10″N   33°44′44″E
темп.,
°C
ветер,
м/с
пор.,
м/с
влажн.,
%
обл.,
%
осадки,
мм/ч
давл.,
гПа
погр.,
м
5 августа, чт
чт500:00+15вюв3574100 0.0 101797
03:00+15юв3872100 0.0 1016163
06:00+15юв1175100 0.1 101613
09:00+16юв2883100 0.4 1015263
12:00+24ююв5644100 0.2 10141221
15:00+26ююв2545100 0.2 10121170
18:00+24юв1356100 0.0 1012187
21:00+19юв398160 0.0 1011236
6 августа, пт
пт600:00+17юв41293100 0.3 1011374
03:00+17юв3109191 0.7 1010271
06:00+16ююв2993100 0.4 1009229
09:00+22ююв4136598 0.4 1008660
12:00+29ю6104198 0.0 10071720
15:00+31ю5934100 0.0 10052656
18:00+29ююв51136100 0.0 1003772
21:00+20ссз3881100 0.3 1006368
7 августа, сб
сб700:00+18ю3597100 1.2 100799
03:00+17юв2496100 1.4 100673
06:00+17юз2297100 0.6 100666
09:00+20ююз2487100 1.4 1007420
12:00+21з448093 0.3 1008666
15:00+25зюз454953 0.3 10081597
18:00+23з454932 0.0 10101380
21:00+18зсз387271 0.0 1012240
8 августа, вс
вс800:00+15сз22806 0.0 101336
03:00+13с00891 0.0 101410
06:00+14ююв11880 0.0 101413
09:00+21ююз23580 0.0 1015471
12:00+25зюз23450 0.0 10151446
15:00+27з33420 0.0 10152058
18:00+26зсз334556 0.0 1015951
21:00+19ссз226893 0.0 101621
9 августа, пн
пн900:00+17ссв117474 0.0 101811
03:00+15всв11819 0.0 101811
06:00+15вюв11825 0.0 101811
09:00+23ююв12569 0.0 1018348
12:00+28юз223612 0.0 10181244
15:00+30з223264 0.0 10171558
18:00+30з014294 0.0 1016272
21:00+23вюв1157100 0.0 101711